Notices

What's New in latest Release from April 7th, 2021:

- Updated Glossary, including Speed of Maximum Gust, and Total Hourly Precipitation

- Updated national and regional climate services offices contacts and prices information

- Addition of station inventory lists for 1981-2010, 1971-2000, and 1961-1990 Normals.

If you haven't already, please take our survey and provide feedback about our website: https://eccc.sondage-survey.ca/f/LanguageSelection.aspx?s=442ca660-fcf1-47c0-95a9-59707d6fd709

Hourly Data Report for April 08, 2021

ALGONQUIN PARK EAST GATE
ONTARIO
Current Station Operator: ECCC - MSC

45°32'00.000" N
78°16'00.000" W
397.00 m
6080192
71581
TNK

Download Data

Hourly Data (April 2021)
Hourly Data Report for April 8, 2021
TIME
LST
Temp Definition
°C
Dew Point Definition
°C
Rel Hum Definition
%
Precip. Amount Definition
mm

Wind Dir Definition
10's deg

Wind Spd Definition
km/h
Visibility Definition
km
Stn Press Definition
kPa
Hmdx Definition


Wind Chill Definition


Weather Definition


00:00 1.0 -1.8 82 0.0 0 1   96.97     LegendNANA
01:00 0.0 -2.2 85 0.0   0   96.96     LegendNANA
02:00 -0.5 -2.3 88 0.0   0   96.97     LegendNANA
03:00 -0.6 -2.1 90 0.0   0   96.94     LegendNANA
04:00 -0.9 -2.2 91 0.0   0   96.94     LegendNANA
05:00 -1.3 -2.6 91 0.0   0   96.95     LegendNANA
06:00 -1.6 -2.7 92 0.0   0   96.96     LegendNANA
07:00 0.8 -0.7 90 0.0   0   97.00     LegendNANA
08:00 7.9 4.4 79 0.0 10 2   96.98     LegendNANA
09:00 13.5 5.5 58 0.0 12 3   96.93     LegendNANA
10:00 17.2 4.6 43 0.0 13 7   96.89     LegendNANA
11:00 19.2 3.2 35 0.0 15 7   96.84     LegendNANA
12:00 20.2 3.2 33 0.0 12 10   96.77     LegendNANA
13:00 21.3 2.2 28 0.0 11 12   96.71     LegendNANA
14:00 22.5 0.5 23 0.0 13 9   96.64     LegendNANA
15:00 22.8 0.5 23 0.0 14 10   96.60     LegendNANA
16:00 22.4 1.1 24 0.0 14 10   96.58     LegendNANA
17:00 21.5 1.8 27 0.0 14 10   96.57     LegendNANA
18:00 18.7 2.4 34 0.0 13 5   96.56     LegendNANA
19:00 14.1 4.2 52 0.0 12 3   96.57     LegendNANA
20:00 10.6 5.9 73 0.0 10 2   96.63     LegendNANA
21:00 8.4 4.0 74 0.0 10 2   96.66     LegendNANA
22:00 6.4 3.1 79 0.0   0   96.64     LegendNANA
23:00 5.4 2.8 83 0.0   0   96.63     LegendNANA

Notes on Data Quality.

Legend

  • E = Estimated
  • M = Missing
  • NA = Not Available*
  • [empty] = Indicates an unobserved value
Date modified: